Location: Bright Sky Observatory
(40.7821°N, 74.2425°W)
Time: 03:56:37
(UTC-04:00)

Amateur Radio Satellites - All Passes

Search period start: 24 May 2016 03:26
Search period end: 25 May 2016 03:26
Location: Bright Sky Observatory, 40.7821°N, 74.2425°W

Satellite Date Start Highest point End Downlink Frequencies (MHz)
Time Altitude Azimuth
SO-50 24 May 03:27:22 03:30:47 18° 319° (NW) 03:34:12 436.795
BEESAT 24 May 03:31:08 03:34:40 21° 266° (W) 03:38:14 436.000
Cosmos 2504 24 May 03:38:35 03:43:12 15° 62° (ENE) 03:47:55 435.465 / 435.565
MOZHAYETS 4 24 May 03:41:06 03:45:27 47° 72° (ENE) 03:49:50
PHONESAT 2.4 24 May 03:43:04 03:46:10 65° 192° (SSW) 03:49:16 2401.200-2431.200
YUBILEINY 24 May 03:46:30 03:55:08 60° 78° (ENE) 04:03:47 435.215
KKS-1 24 May 03:56:11 04:00:40 82° 255° (WSW) 04:05:10 437.445
Gurwin Techsat 1B 24 May 04:05:53 04:10:35 33° 293° (WNW) 04:15:16 435.225
Oscar 19 24 May 04:19:30 04:20:59 11° 302° (WNW) 04:22:27 437.125/150
Cosmos 2491 24 May 04:38:47 04:47:29 66° 92° (E) 04:56:12 435.465 / 435.565
STARS 24 May 04:43:36 04:47:52 48° 260° (W) 04:52:10 437.465
ITAMSAT 1 24 May 04:49:14 04:53:50 32° 293° (WNW) 04:58:25 435.822/435.867
AO-7 24 May 04:50:19 04:58:42 74° 106° (ESE) 05:07:04 29.400- 29.500
CUBESAT XI-V 24 May 04:55:14 04:59:22 33° 70° (ENE) 05:03:34 437.345
ISS 24 May 05:00:15 05:03:21 39° 30° (NNE) 05:06:27 145.825
RS-15 24 May 05:09:40 05:20:22 37° 255° (WSW) 05:31:01 29.354- 29.394
HORYU 2 24 May 05:14:28 05:18:31 34° 98° (E) 05:22:32 437.375
MOZHAYETS 4 24 May 05:20:01 05:22:52 16° 268° (W) 05:25:44
PHONESAT 2.4 24 May 05:20:15 05:22:37 20° 208° (SSW) 05:24:57 2401.200-2431.200
Cosmos 2504 24 May 05:29:34 05:37:54 77° 82° (E) 05:46:42 435.465 / 435.565
YUBILEINY 24 May 05:44:14 05:51:19 29° 277° (W) 05:58:26 435.215
CUTE-I 24 May 05:56:07 05:58:07 12° 89° (E) 06:00:07 437.470
NOAA 18 24 May 06:11:40 06:15:49 22° 94° (E) 06:19:57 137.9125
STRAND 1 24 May 06:12:25 06:16:03 20° 63° (ENE) 06:19:40 437.568
CUBESAT XI-V 24 May 06:32:59 06:36:46 25° 266° (W) 06:40:37 437.345
ISS 24 May 06:36:59 06:39:39 23° 226° (SW) 06:42:19 145.825
Cosmos 2491 24 May 06:37:46 06:44:59 27° 293° (WNW) 06:52:15 435.465 / 435.565
AO-7 24 May 06:44:09 06:50:42 27° 305° (NW) 06:57:17 29.400- 29.500
Cubesat XI-IV 24 May 06:46:02 06:50:59 37° 98° (E) 06:55:54 437.490
HORYU 2 24 May 06:51:27 06:54:52 22° 294° (WNW) 06:58:17 437.375
LilacSat-2 24 May 06:55:19 06:58:54 41° 98° (E) 07:02:29 437.200
NOAA 15 24 May 06:55:52 07:01:10 67° 102° (ESE) 07:06:24 137.62
BRITE-PL 24 May 07:06:06 07:11:23 69° 101° (E) 07:16:12 437.365/2234.400
AO-85 24 May 07:09:47 07:15:12 65° 118° (ESE) 07:20:31 145.980
DOVE 4 24 May 07:24:06 07:27:25 20° 92° (E) 07:30:37 437.250
Cosmos 2504 24 May 07:24:29 07:30:26 22° 279° (W) 07:36:37 435.465 / 435.565
CUTE-I 24 May 07:33:23 07:38:46 82° 285° (WNW) 07:44:07 437.470
GONETS M04 24 May 07:42:06 07:45:58 13° 57° (ENE) 07:49:49
STRAND 1 24 May 07:49:53 07:54:49 51° 260° (W) 07:59:48 437.568
NOAA 18 24 May 07:51:27 07:56:42 49° 290° (WNW) 08:01:57 137.9125
GOMX 1 24 May 07:51:43 07:56:34 88° 291° (WNW) 08:01:04 467.674
CANX-2 24 May 07:54:53 07:57:06 14° 91° (E) 07:59:18 2200.000
SEEDS 24 May 08:06:30 08:07:52 11° 90° (E) 08:09:13 437.485
PRISM 24 May 08:21:17 08:25:23 67° 74° (ENE) 08:29:32 437.425
CUTE 1.7 + AOD 2 24 May 08:21:52 08:25:22 24° 95° (E) 08:28:51 437.475
CINEMA 3 24 May 08:23:47 08:27:18 25° 95° (E) 08:30:44 145.822/145.860
Cosmos 2499 24 May 08:25:08 08:29:51 16° 61° (ENE) 08:34:38 435.465 / 435.565
Cubesat XI-IV 24 May 08:26:22 08:30:54 29° 294° (WNW) 08:35:25 437.490
LilacSat-2 24 May 08:30:55 08:32:52 14° 294° (WNW) 08:34:48 437.200
HO-68 24 May 08:31:18 08:37:57 39° 98° (E) 08:44:34 435.675
NOAA 15 24 May 08:37:05 08:40:21 17° 299° (WNW) 08:43:37 137.62
SO-50 24 May 08:38:41 08:40:00 11° 34° (NNE) 08:41:19 436.795
BRITE-PL 24 May 08:46:10 08:49:08 15° 300° (WNW) 08:51:58 437.365/2234.400
AIST 1 24 May 08:47:00 08:51:14 47° 79° (E) 08:55:25
AO-85 24 May 08:51:50 08:56:08 23° 316° (NW) 09:00:20 145.980
COMPASS 1 24 May 08:58:02 09:01:49 31° 97° (E) 09:05:34 437.405
DOVE 4 24 May 09:01:12 09:05:15 34° 290° (WNW) 09:09:06 437.250
AAUSAT CUBESAT 2 24 May 09:04:35 09:08:18 29° 96° (E) 09:11:58 437.432
AUBIESAT-1 24 May 09:07:36 09:10:57 86° 104° (ESE) 09:14:15 437.475
M-CUBED/EXP-1 PRIME 24 May 09:10:48 09:14:06 66° 290° (WNW) 09:17:20 437.505
CUTE-I 24 May 09:16:21 09:17:56 11° 303° (WNW) 09:19:31 437.470
CANX-2 24 May 09:29:05 09:33:13 50° 287° (WNW) 09:37:22 2200.000
GONETS M04 24 May 09:35:55 09:44:38 69° 80° (E) 09:53:16
CUBEBUG 2 24 May 09:39:32 09:43:38 56° 100° (E) 09:47:44 437.445
SEEDS 24 May 09:39:45 09:43:56 60° 286° (WNW) 09:48:07 437.485
PCSat 24 May 09:40:29 09:44:02 18° 105° (ESE) 09:47:35 145.827
Oscar 11 24 May 09:45:12 09:49:10 34° 97° (E) 09:53:07 145.826/435.025
UNISAT 6 24 May 09:45:49 09:49:34 28° 69° (ENE) 09:53:14 437.425
ZACube-1 24 May 09:51:37 09:55:26 34° 97° (E) 09:59:17 437.345
TIGRISAT 24 May 09:54:33 09:58:27 32° 70° (ENE) 10:02:19 435.000
CUTE 1.7 + AOD 2 24 May 09:57:30 10:01:10 28° 290° (WNW) 10:04:50 437.475
CINEMA 3 24 May 10:00:56 10:04:23 25° 291° (WNW) 10:07:45 145.822/145.860
DELFI C3 24 May 10:07:22 10:10:50 27° 96° (E) 10:14:18 145.870
Cosmos 2499 24 May 10:15:50 10:24:23 75° 81° (E) 10:33:15 435.465 / 435.565
UWE-3 24 May 10:16:27 10:20:37 78° 283° (WNW) 10:24:48 435.000/436.395/437.385
SO-50 24 May 10:16:52 10:21:32 59° 54° (NE) 10:26:02 436.795
HO-68 24 May 10:19:03 10:25:36 40° 296° (WNW) 10:32:10 435.675
POPSAT HIP 1 24 May 10:20:13 10:21:50 12° 63° (ENE) 10:23:26 437.405
QB50P1 24 May 10:20:51 10:22:36 12° 63° (ENE) 10:24:22 145.935-145.965
QB50P2 24 May 10:21:26 10:23:28 13° 63° (ENE) 10:25:30 145.880/145.840
POLYITAN 1 24 May 10:23:47 10:25:53 14° 64° (ENE) 10:27:59 437.675
AIST 1 24 May 10:26:09 10:28:22 14° 275° (W) 10:30:33
ANTELSAT 24 May 10:26:25 10:30:49 77° 77° (ENE) 10:35:09 437.575/2403.000
FUNcube-1 24 May 10:31:39 10:35:49 85° 284° (WNW) 10:40:02 145.935
COMPASS 1 24 May 10:33:57 10:37:11 22° 292° (WNW) 10:40:24 437.405
HUMSAT D 24 May 10:34:12 10:37:38 25° 95° (E) 10:41:04 437.325/437.525
NANOSAT C BR1 24 May 10:40:08 10:43:08 19° 66° (ENE) 10:46:07 145.865
AAUSAT CUBESAT 2 24 May 10:40:20 10:43:37 23° 292° (WNW) 10:46:54 437.432
O/OREOS (USA 219) 24 May 10:44:00 10:48:35 83° 292° (WNW) 10:53:10 437.305
CUBEBUG 2 24 May 11:18:04 11:19:47 12° 296° (WNW) 11:21:30 437.445
DUCHIFAT 1 24 May 11:19:21 11:23:25 47° 73° (ENE) 11:27:29 145.980
PCSat 24 May 11:21:31 11:26:53 62° 301° (WNW) 11:32:18 145.827
Oscar 11 24 May 11:21:48 11:25:05 21° 293° (WNW) 11:28:21 145.826/435.025
UNISAT 6 24 May 11:22:32 11:26:13 26° 264° (W) 11:29:52 437.425
VELOX 1 24 May 11:28:06 11:29:48 12° 90° (E) 11:31:30 145.980
ZACube-1 24 May 11:28:31 11:31:30 19° 293° (WNW) 11:34:30 437.345
CUBEBUG 1 24 May 11:31:00 11:33:10 13° 91° (E) 11:35:19 437.445
TIGRISAT 24 May 11:31:45 11:35:10 22° 265° (W) 11:38:34 435.000
GONETS M04 24 May 11:34:04 11:40:36 25° 279° (W) 11:47:07
DX 1 24 May 11:36:03 11:37:46 12° 91° (E) 11:39:28 434.975-435.025
DELFI C3 24 May 11:42:24 11:45:33 22° 292° (WNW) 11:48:43 145.870
50 SAT 24 May 11:44:30 11:47:12 19° 94° (E) 11:49:54 437.505
JAS-2 24 May 11:51:40 11:57:50 31° 61° (ENE) 12:04:22 435.910
POPSAT HIP 1 24 May 11:52:52 11:57:04 64° 258° (WSW) 12:01:18 437.405
BUGSAT 1 24 May 11:53:32 11:57:40 55° 74° (ENE) 12:01:46 437.445
QB50P1 24 May 11:53:40 11:57:52 61° 259° (W) 12:02:04 145.935-145.965
QB50P2 24 May 11:54:36 11:58:47 56° 260° (W) 12:02:59 145.880/145.840
POLYITAN 1 24 May 11:57:04 12:01:14 55° 260° (W) 12:05:24 437.675
CUSAT 1 24 May 11:57:54 12:03:23 42° 89° (E) 12:10:09 437.405
SO-50 24 May 11:58:48 12:01:27 15° 252° (WSW) 12:04:05 436.795
AISAT 24 May 12:01:50 12:05:45 30° 96° (E) 12:09:37 437.250
BEESAT 2 24 May 12:09:13 12:11:49 17° 111° (ESE) 12:14:26 435.950
HUMSAT D 24 May 12:09:44 12:13:12 26° 291° (WNW) 12:16:40 437.325/437.525
Cosmos 2499 24 May 12:10:24 12:16:39 23° 279° (W) 12:23:05 435.465 / 435.565
NANOSAT C BR1 24 May 12:14:40 12:18:36 36° 262° (W) 12:22:32 145.865
SPROUT 24 May 12:15:09 12:17:43 16° 92° (E) 12:20:16 437.525
Oscar 19 24 May 12:16:48 12:20:10 18° 62° (ENE) 12:23:33 437.125/150
ESTCUBE 1 24 May 12:23:57 12:28:32 77° 103° (ESE) 12:33:04 437.505/2401.250
UKube-1 24 May 12:30:32 12:34:37 39° 99° (E) 12:38:39 .
BEESAT 3 24 May 12:49:54 12:53:50 88° 122° (ESE) 12:57:48 437.485
TISAT 1 24 May 12:54:42 12:55:48 11° 90° (E) 12:56:54 437.305
DUCHIFAT 1 24 May 12:57:06 12:59:22 14° 268° (W) 13:01:37 145.980
DANDE 24 May 12:59:40 13:04:32 60° 93° (E) 13:11:03 436.750
VELOX 1 24 May 13:02:17 13:06:40 61° 286° (WNW) 13:11:00 145.980
CUBEBUG 1 24 May 13:05:30 13:09:47 53° 287° (WNW) 13:14:00 437.445
PCSat 24 May 13:09:20 13:11:25 12° 323° (NW) 13:13:30 145.827
DX 1 24 May 13:10:01 13:14:20 59° 287° (WNW) 13:18:35 434.975-435.025
50 SAT 24 May 13:17:46 13:20:56 27° 290° (WNW) 13:24:06 437.505
BUGSAT 1 24 May 13:31:37 13:33:21 12° 269° (W) 13:35:05 437.445
JAS-2 24 May 13:35:18 13:42:18 58° 261° (W) 13:49:58 435.910
AISAT 24 May 13:38:29 13:42:05 25° 293° (WNW) 13:45:39 437.250
CUSAT 1 24 May 13:40:11 13:45:38 34° 293° (WNW) 13:52:15 437.405
BEESAT 2 24 May 13:45:34 13:49:20 41° 307° (NW) 13:53:09 435.950
Gurwin Techsat 1B 24 May 13:46:39 13:51:44 49° 71° (ENE) 13:56:51 435.225
AIST 2 24 May 13:48:36 13:50:21 12° 108° (ESE) 13:52:07 435.215
SPROUT 24 May 13:49:50 13:53:53 43° 288° (WNW) 13:57:54 437.525
Oscar 19 24 May 13:53:50 13:58:58 61° 259° (WSW) 14:04:09 437.125/150
BEESAT 24 May 13:56:06 13:56:18 10° 89° (E) 13:56:29 436.000
AO-7 24 May 13:59:18 14:05:16 23° 52° (NE) 14:11:15 29.400- 29.500
ESTCUBE 1 24 May 14:03:13 14:04:41 11° 299° (WNW) 14:06:08 437.505/2401.250
UKube-1 24 May 14:07:21 14:10:22 19° 295° (WNW) 14:13:22 .
ITAMSAT 1 24 May 14:27:25 14:32:20 47° 70° (ENE) 14:37:17 435.822/435.867
TISAT 1 24 May 14:27:42 14:31:50 59° 286° (WNW) 14:35:55 437.305
BEESAT 3 24 May 14:30:41 14:32:06 12° 320° (NW) 14:33:32 437.485
DANDE 24 May 14:44:19 14:48:15 20° 300° (WNW) 14:52:57 436.750
Cosmos 2491 24 May 14:49:59 14:57:37 32° 70° (ENE) 15:05:10 435.465 / 435.565
YUBILEINY 24 May 14:57:32 15:00:13 12° 73° (ENE) 15:02:54 435.215
SWISSCUBE 24 May 14:59:42 15:04:25 55° 101° (E) 15:09:07 437.505
ITUPSAT 1 24 May 15:03:50 15:08:33 54° 100° (E) 15:13:14 437.325
AIST 2 24 May 15:24:15 15:28:19 59° 305° (NW) 15:32:26 435.215
Gurwin Techsat 1B 24 May 15:28:01 15:31:55 21° 267° (W) 15:35:52 435.225
BEESAT 24 May 15:29:50 15:34:39 81° 285° (WNW) 15:39:25 436.000
MOZHAYETS 4 24 May 15:38:34 15:40:01 11° 89° (E) 15:41:29
AO-85 24 May 15:42:41 15:47:16 48° 52° (NE) 15:51:26 145.980
KKS-1 24 May 15:48:18 15:51:28 19° 93° (E) 15:54:37 437.445
AO-7 24 May 15:48:44 15:57:02 87° 251° (WSW) 16:05:25 29.400- 29.500
ITAMSAT 1 24 May 16:08:12 16:12:01 21° 266° (W) 16:15:52 435.822/435.867
HORYU 2 24 May 16:12:18 16:16:11 31° 69° (ENE) 16:20:05 437.375
STARS 24 May 16:33:24 16:37:14 29° 97° (E) 16:41:02 437.465
SWISSCUBE 24 May 16:38:45 16:41:45 17° 297° (WNW) 16:44:47 437.505
NOAA 15 24 May 16:39:09 16:41:51 14° 59° (ENE) 16:44:33 137.62
BRITE-PL 24 May 16:41:28 16:43:15 11° 58° (ENE) 16:45:02 437.365/2234.400
ITUPSAT 1 24 May 16:42:51 16:45:57 17° 297° (WNW) 16:49:03 437.325
Cosmos 2491 24 May 16:46:22 16:54:51 56° 270° (W) 17:03:15 435.465 / 435.565
YUBILEINY 24 May 16:46:41 16:55:17 70° 93° (E) 17:03:54 435.215
MOZHAYETS 4 24 May 17:13:02 17:17:39 69° 285° (WNW) 17:22:14
CUTE-I 24 May 17:16:52 17:20:46 21° 63° (ENE) 17:24:39 437.470
RS-15 24 May 17:19:48 17:30:04 43° 108° (ESE) 17:40:48 29.354- 29.394
GOMX 1 24 May 17:23:37 17:26:13 14° 61° (ENE) 17:28:47 467.674
KKS-1 24 May 17:24:03 17:28:10 38° 290° (WNW) 17:32:16 437.445
AO-85 24 May 17:24:15 17:27:14 18° 252° (WSW) 17:30:04 145.980
NOAA 18 24 May 17:37:24 17:42:28 41° 68° (ENE) 17:47:34 137.9125
LilacSat-2 24 May 17:37:39 17:40:31 20° 69° (ENE) 17:43:22 437.200
AO-7 24 May 17:45:59 17:50:52 17° 270° (W) 17:55:47 29.400- 29.500
HORYU 2 24 May 17:49:11 17:52:45 24° 265° (W) 17:56:20 437.375
Cubesat XI-IV 24 May 18:07:43 18:12:56 59° 72° (ENE) 18:18:09 437.490
Cosmos 2504 24 May 18:08:06 18:15:07 63° 92° (E) 18:22:30 435.465 / 435.565
STARS 24 May 18:09:55 18:13:28 25° 293° (WNW) 18:16:59 437.465
BRITE-PL 24 May 18:15:09 18:20:42 75° 76° (ENE) 18:26:26 437.365/2234.400
NOAA 15 24 May 18:15:37 18:20:55 80° 257° (WSW) 18:26:16 137.62
AUBIESAT-1 24 May 18:22:54 18:23:02 10° 59° (ENE) 18:23:09 437.475
M-CUBED/EXP-1 PRIME 24 May 18:24:22 18:26:27 14° 61° (ENE) 18:28:29 437.505
PCSat 24 May 18:27:22 18:30:57 17° 43° (NE) 18:34:31 145.827
DOVE 4 24 May 18:28:21 18:32:37 25° 67° (ENE) 18:36:45 437.250
CUBESAT XI-V 24 May 18:28:35 18:33:21 84° 103° (ESE) 18:38:03 437.345
YUBILEINY 24 May 18:45:59 18:52:50 25° 294° (WNW) 18:59:45 435.215
CANX-2 24 May 18:49:52 18:50:05 10° 62° (ENE) 18:50:18 2200.000
CUTE-I 24 May 18:55:16 19:00:25 51° 260° (W) 19:05:36 437.470
GOMX 1 24 May 18:58:01 19:03:31 88° 253° (WSW) 19:09:00 467.674
HO-68 24 May 19:00:13 19:06:11 30° 61° (ENE) 19:12:09 435.675
LilacSat-2 24 May 19:11:25 19:14:41 26° 264° (W) 19:17:55 437.200
CUTE 1.7 + AOD 2 24 May 19:15:01 19:17:47 17° 66° (ENE) 19:20:34 437.475
O/OREOS (USA 219) 24 May 19:15:58 19:19:11 19° 56° (NE) 19:22:22 437.305
NOAA 18 24 May 19:18:44 19:23:15 26° 265° (W) 19:27:46 137.9125
CINEMA 3 24 May 19:24:46 19:28:45 27° 69° (ENE) 19:32:37 145.822/145.860
RS-15 24 May 19:30:52 19:42:04 59° 311° (NW) 19:53:58 29.354- 29.394
COMPASS 1 24 May 19:49:03 19:52:09 21° 68° (ENE) 19:55:17 437.405
Cubesat XI-IV 24 May 19:50:00 19:53:22 17° 268° (W) 19:56:46 437.490
AUBIESAT-1 24 May 19:52:48 19:57:03 78° 252° (WSW) 20:01:02 437.475
AAUSAT CUBESAT 2 24 May 19:55:11 19:58:09 20° 67° (ENE) 20:01:09 437.432
M-CUBED/EXP-1 PRIME 24 May 19:56:23 20:00:40 58° 254° (WSW) 20:04:39 437.505
BRITE-PL 24 May 19:56:35 19:59:43 15° 272° (W) 20:02:54 437.365/2234.400
STRAND 1 24 May 20:00:23 20:05:27 55° 101° (E) 20:10:29 437.568
Cosmos 2504 24 May 20:03:36 20:09:08 23° 293° (WNW) 20:14:54 435.465 / 435.565
DOVE 4 24 May 20:05:06 20:10:04 41° 262° (W) 20:14:54 437.250
CUBESAT XI-V 24 May 20:08:43 20:10:00 11° 300° (WNW) 20:11:18 437.345
PCSat 24 May 20:09:35 20:15:03 83° 243° (WSW) 20:20:27 145.827
CANX-2 24 May 20:21:08 20:25:18 75° 257° (WSW) 20:29:32 2200.000
BEESAT 2 24 May 20:27:22 20:29:13 13° 41° (NE) 20:31:04 435.950
SEEDS 24 May 20:30:47 20:34:56 88° 82° (E) 20:39:08 437.485
CUBEBUG 2 24 May 20:37:06 20:41:21 46° 73° (ENE) 20:45:29 437.445
Oscar 11 24 May 20:39:55 20:43:28 26° 69° (ENE) 20:47:02 145.826/435.025
GOMX 1 24 May 20:40:42 20:42:13 11° 273° (W) 20:43:45 467.674
GONETS M04 24 May 20:45:10 20:49:29 15° 75° (ENE) 20:53:45
HO-68 24 May 20:46:33 20:53:30 55° 259° (WSW) 21:00:31 435.675
ZACube-1 24 May 20:47:23 20:50:59 27° 69° (ENE) 20:54:31 437.345
CUTE 1.7 + AOD 2 24 May 20:49:23 20:53:19 40° 262° (W) 20:57:18 437.475
DELFI C3 24 May 20:54:01 20:56:29 16° 66° (ENE) 20:58:59 145.870
O/OREOS (USA 219) 24 May 20:54:33 20:58:49 44° 253° (WSW) 21:03:02 437.305
CINEMA 3 24 May 21:01:29 21:05:46 31° 263° (W) 21:09:56 145.822/145.860
BEESAT 3 24 May 21:07:30 21:11:19 45° 54° (NE) 21:15:06 437.485
UWE-3 24 May 21:12:47 21:17:09 80° 76° (ENE) 21:21:25 435.000/436.395/437.385
AIST 1 24 May 21:16:09 21:19:55 29° 90° (E) 21:23:43
COMPASS 1 24 May 21:23:51 21:27:31 31° 263° (W) 21:31:15 437.405
HUMSAT D 24 May 21:26:02 21:28:44 17° 66° (ENE) 21:31:25 437.325/437.525
FUNcube-1 24 May 21:26:36 21:30:51 71° 75° (ENE) 21:35:02 145.935
AAUSAT CUBESAT 2 24 May 21:29:41 21:33:25 33° 263° (W) 21:37:11 437.432
PRISM 24 May 21:38:14 21:42:25 71° 285° (WNW) 21:46:32 437.425
STRAND 1 24 May 21:40:39 21:44:10 19° 297° (WNW) 21:47:41 437.568
ISS 24 May 21:41:18 21:42:45 12° 129° (SE) 21:44:13 145.825
RS-15 24 May 21:48:41 21:57:54 25° 341° (NNW) 22:07:28 29.354- 29.394
PCSat 24 May 21:57:16 21:57:31 10° 259° (W) 21:57:48 145.827
DANDE 24 May 21:57:49 22:01:16 13° 55° (NE) 22:04:40 436.750
BEESAT 2 24 May 22:03:35 22:07:35 78° 240° (WSW) 22:11:32 435.950
AIST 2 24 May 22:09:25 22:10:42 11° 38° (NE) 22:11:59 435.215
CUBEBUG 2 24 May 22:15:32 22:18:11 15° 268° (W) 22:20:47 437.445
Oscar 11 24 May 22:15:52 22:19:31 27° 265° (W) 22:23:11 145.826/435.025
ANTELSAT 24 May 22:19:29 22:22:03 15° 92° (E) 22:24:37 437.575/2403.000
ZACube-1 24 May 22:23:41 22:27:13 25° 265° (W) 22:30:42 437.345
VELOX 1 24 May 22:25:52 22:27:28 12° 61° (ENE) 22:29:04 145.980
DELFI C3 24 May 22:27:22 22:31:03 38° 262° (W) 22:34:46 145.870
CUBEBUG 1 24 May 22:27:33 22:29:20 12° 62° (ENE) 22:31:07 437.445
DX 1 24 May 22:32:08 22:33:36 11° 61° (ENE) 22:35:04 434.975-435.025
CUSAT 1 24 May 22:32:49 22:40:02 36° 69° (ENE) 22:46:20 437.405
GONETS M04 24 May 22:35:59 22:44:47 80° 95° (E) 22:53:34
BEESAT 3 24 May 22:46:18 22:48:38 15° 250° (WSW) 22:50:58 437.485
Cosmos 2499 24 May 22:52:31 22:59:30 59° 91° (E) 23:06:58 435.465 / 435.565
AIST 1 24 May 22:53:58 22:57:30 23° 286° (WNW) 23:01:03
AISAT 24 May 22:59:00 23:02:46 27° 68° (ENE) 23:06:32 437.250
HUMSAT D 24 May 23:00:16 23:04:04 37° 262° (W) 23:07:53 437.325/437.525
SPROUT 24 May 23:09:30 23:11:25 13° 63° (ENE) 23:13:19 437.525
UNISAT 6 24 May 23:13:22 23:17:38 63° 101° (E) 23:21:55 437.425
ISS 24 May 23:15:33 23:18:47 71° 325° (NW) 23:22:03 145.825
TIGRISAT 24 May 23:22:04 23:26:21 74° 102° (ESE) 23:30:40 435.000
ESTCUBE 1 24 May 23:22:55 23:27:23 67° 75° (ENE) 23:31:53 437.505/2401.250
UKube-1 24 May 23:24:47 23:28:39 33° 70° (ENE) 23:32:33 .
PHONESAT 2.4 24 May 23:28:25 23:30:59 23° 154° (SSE) 23:33:32 2401.200-2431.200
DANDE 24 May 23:37:40 23:45:59 58° 76° (ENE) 23:53:44 436.750
POPSAT HIP 1 24 May 23:38:38 23:41:46 20° 94° (E) 23:44:53 437.405
QB50P1 24 May 23:39:19 23:42:31 21° 94° (E) 23:45:41 145.935-145.965
QB50P2 24 May 23:40:18 23:43:39 23° 95° (E) 23:46:59 145.880/145.840
POLYITAN 1 24 May 23:42:44 23:46:05 23° 95° (E) 23:49:26 437.675
AIST 2 24 May 23:45:43 23:49:53 80° 58° (ENE) 23:54:01 435.215
ANTELSAT 24 May 23:54:53 23:58:58 44° 288° (WNW) 00:03:05 437.575/2403.000
50 SAT 24 May 23:55:04 23:58:39 62° 259° (W) 00:02:16 437.505
VELOX 1 24 May 23:58:52 00:03:19 72° 258° (WSW) 00:07:48 145.980
NANOSAT C BR1 24 May 23:59:11 00:02:59 33° 97° (E) 00:06:46 145.865
CUBEBUG 1 25 May 00:00:37 00:05:02 68° 259° (W) 00:09:29 437.445
DX 1 25 May 00:04:48 00:09:10 72° 257° (WSW) 00:13:35 434.975-435.025
RS-15 25 May 00:06:47 00:16:14 25° 18° (NNE) 00:25:48 29.354- 29.394
CUSAT 1 25 May 00:14:52 00:22:19 47° 270° (W) 00:28:43 437.405
SO-50 25 May 00:31:29 00:35:09 21° 111° (ESE) 00:38:50 436.795
AISAT 25 May 00:35:18 00:39:09 28° 264° (W) 00:43:01 437.250
GONETS M04 25 May 00:36:08 00:42:36 22° 296° (WNW) 00:49:06
DUCHIFAT 1 25 May 00:39:05 00:43:17 88° 279° (W) 00:47:27 145.980
SPROUT 25 May 00:42:36 00:46:51 60° 260° (W) 00:51:07 437.525
JAS-2 25 May 00:46:38 00:52:40 26° 90° (E) 00:58:13 435.910
Cosmos 2499 25 May 00:47:24 00:53:11 25° 293° (WNW) 00:59:17 435.465 / 435.565
UNISAT 6 25 May 00:52:07 00:53:51 12° 297° (WNW) 00:55:33 437.425
ISS 25 May 00:53:26 00:55:42 17° 344° (NNW) 00:57:58 145.825
BEESAT 25 May 01:01:15 01:03:23 13° 61° (ENE) 01:05:30 436.000
UKube-1 25 May 01:01:25 01:04:45 21° 265° (W) 01:08:06 .
TIGRISAT 25 May 01:01:43 01:02:26 10° 298° (WNW) 01:03:11 435.000
ESTCUBE 1 25 May 01:03:17 01:04:38 11° 270° (W) 01:06:01 437.505/2401.250
PHONESAT 2.4 25 May 01:04:20 01:07:28 71° 168° (SSE) 01:10:35 2401.200-2431.200
BUGSAT 1 25 May 01:10:51 01:14:55 82° 282° (WNW) 01:18:55 437.445
POPSAT HIP 1 25 May 01:13:51 01:17:37 32° 290° (WNW) 01:21:21 437.405
QB50P1 25 May 01:14:36 01:18:20 31° 290° (WNW) 01:22:02 145.935-145.965
QB50P2 25 May 01:15:49 01:19:28 29° 290° (WNW) 01:23:05 145.880/145.840
POLYITAN 1 25 May 01:18:16 01:21:52 28° 291° (WNW) 01:25:28 437.675
TISAT 1 25 May 01:18:35 01:22:50 86° 261° (W) 01:27:05 437.305
DANDE 25 May 01:21:10 01:28:23 33° 274° (W) 01:35:12 436.750
NANOSAT C BR1 25 May 01:35:25 01:38:30 20° 293° (WNW) 01:41:35 145.865
Gurwin Techsat 1B 25 May 02:03:55 02:07:43 20° 93° (E) 02:11:31 435.225
Oscar 19 25 May 02:05:41 02:10:41 48° 100° (E) 02:15:38 437.125/150
SWISSCUBE 25 May 02:05:45 02:10:25 62° 73° (ENE) 02:15:08 437.505
ITUPSAT 1 25 May 02:10:10 02:14:50 60° 73° (ENE) 02:19:33 437.325
SO-50 25 May 02:10:33 02:15:19 49° 307° (NW) 02:20:05 436.795
RS-15 25 May 02:20:14 02:32:19 57° 48° (NE) 02:44:21 29.354- 29.394
JAS-2 25 May 02:30:43 02:38:12 61° 290° (WNW) 02:44:56 435.910
ISS 25 May 02:31:38 02:33:10 13° 4° (N) 02:34:41 145.825
BEESAT 25 May 02:35:48 02:40:33 73° 258° (WSW) 02:45:19 436.000
MOZHAYETS 4 25 May 02:40:55 02:42:22 11° 61° (ENE) 02:43:50
PHONESAT 2.4 25 May 02:41:04 02:44:11 81° 188° (S) 02:47:19 2401.200-2431.200
ITAMSAT 1 25 May 02:41:34 02:44:51 17° 92° (E) 02:48:08 435.822/435.867
KKS-1 25 May 02:46:26 02:49:29 18° 65° (ENE) 02:52:33 437.445
YUBILEINY 25 May 02:57:26 03:05:12 34° 71° (ENE) 03:12:56 435.215
